Find Starlink 4298

NORAD ID: 53177 Int'l Des: 2022-083 Owner: SPXS Country: US Constellation: starlink operational
LEOCIRCULAR

リアルタイム位置

3D地球を読み込み中...

Starlink 4298について

説明を読み込み中...

次回通過

Passes for default location (London). Set your location on the main map for personalized predictions.

高度履歴

Loading altitude history...

軌道要素

1 53177U 22083AX 26106.14952519 .00000648 00000-0 58776-4 0 9994
2 53177 53.2176 330.9447 0001353 92.7465 267.3682 15.08840975207352
Epoch: Apr 16, 2026 • Age: 10 hours

現在のステータス

高度 542.0 km
速度 7.59 km/s
衛星直下点 -7.60°S, 100.53°E
打ち上げ日 Jul 17, 2022
運用期間 3.7 years
タイプ internet

技術仕様

分類 Payload
質量 297.00 kg
乾燥質量 275.00 kg
総質量 297.00 kg
長さ 0.20 m
直径 2.80 m
スパン 9.00 m
形状 Box + pan
製造者 SPXS
バスタイプ Starlink
フェーズステータス In Orbit
所有者/国 SPXS/US

Most Searched